Regional Weather Roundup
Issued by NWS

Home | Current Version | Previous Version | Text Only | Print | Product List | Glossary Off
Versions: 1 2 3 4 5 6 7 8 9 10 11 12 13 14 15 16 17 18 19 20 21 22 23 24 25 26 27 28 29 30 31 32 33 34 35 36 37 38 39 40 41 42 43 44 45 46 47 48 49 50

877
ASUS45 KBOU 171910
RWRCO

WEATHER ROUNDUP FOR COLORADO
NATIONAL WEATHER SERVICE DENVER/BOULDER CO
1200 PM MST WED JAN 17 2018

NOTE: "FAIR" INDICATES FEW OR NO CLOUDS BELOW 12000 FEET WITH NO
SIGNIFICANT WEATHER AND/OR OBSTRUCTIONS TO VISIBILITY.

COZ001>005-013-030-031-172000-
...NORTHWEST COLORADO...

CITY           SKY/WX    TMP DP  RH WIND       PRES   REMARKS
CRAIG          FAIR      27   8  44 SW5       30.41F WCI  22
HAYDEN         FAIR     N/A N/A N/A SE8       30.41F
MEEKER         FAIR      33  13  43 SW3       30.38F
RABBIT EARS PA FAIR      27  16  63 CALM      30.37F
STEAMBOAT SPGS FAIR      16   4  60 CALM      30.40F
WALDEN         FAIR      27   3  36 CALM      30.38F
$$

COZ006>008-011-172000-
...WEST CENTRAL VALLEYS...

CITY           SKY/WX    TMP DP  RH WIND       PRES   REMARKS
GRAND JUNCTION FAIR      38  11  32 S9        30.42F
MONTROSE       FAIR      35  14  42 NW6       30.43F WCI  30
EAGLE          FAIR      25   5  42 SW3       30.48F
RIFLE          FAIR      33  10  38 CALM      30.42F
DELTA          FAIR      36  12  37 CALM      30.44F
NUCLA          FAIR      36  12  38 NW5       30.43F
$$

COZ017>023-064>068-172000-
...SOUTHWEST COLORADO...

CITY           SKY/WX    TMP DP  RH WIND       PRES   REMARKS
DURANGO        FAIR      35  20  54 W5        30.34F WCI  31
CORTEZ         FAIR      40  20  44 VRB7      30.36F
PAGOSA SPRINGS FAIR      35  17  47 S5        30.33F WCI  31
TELLURIDE      FAIR      36 -10  14 CALM      30.37F
WOLF CREEK PAS FAIR      28 -13  16 N6        30.41F WCI  22
$$

COZ009-010-012-014-032>034-037-058>063-172000-
...CENTRAL COLORADO...

CITY           SKY/WX    TMP DP  RH WIND       PRES   REMARKS
ASPEN          FAIR      31  -2  24 N6        30.38F WCI  25
BUENA VISTA    FAIR      45   4  18 N17G28    30.30F
COPPER MTN     NOT AVBL
BERTHOUD PASS  FAIR      16   5  62 NW8G17    30.38F WCI   5
COTTONWOOD PAS   N/A     43   0  16 SE8       30.34F
GUNNISON       FAIR      20   5  52 CALM      30.43F
KREMMLING      FAIR      21   3  45 CALM      30.48F
LEADVILLE      FAIR      32  11  41 N14       30.35F WCI  22
MONARCH PASS   FAIR      27   0  31 S3        30.48S
SALIDA         FAIR      40  -4  16 CALM      30.39F
SUNLIGHT       FAIR      27  12  54 CALM      30.44F
WILKERSON PASS FAIR      32 -22   9 CALM      30.39F
$$

COZ069>075-172000-
...SAN LUIS VALLEY/SANGRE DE CRISTO MOUNTAINS...

CITY           SKY/WX    TMP DP  RH WIND       PRES   REMARKS
ALAMOSA        FAIR      32   9  38 NW5       30.34F WCI  27
DEL NORTE      FAIR      30   9  40 E5        30.34F WCI  26
LA VETA PASS   FAIR      36   9  32 N12G18      N/A
SAGUACHE       FAIR      32  10  40 SE6       30.34F WCI  26
$$

COZ035-036-038>040-172000-
...NORTHERN COLORADO FRONT RANGE...

CITY           SKY/WX    TMP DP  RH WIND       PRES   REMARKS
DENVER INTL AP FAIR      42  10  27 VRB3      30.29F
DMNS CITY PARK NOT AVBL
AURORA         SUNNY     44   2  17 CALM      30.29F
FRONT RANGE AP SUNNY     45  12  26 SW3       30.30F
ERIE MUNI ARPT FAIR      45   4  18 CALM      30.35F
BOULDER MUN AP FAIR      46   5  18 CALM      30.28F
CENTENNIAL     FAIR      45   1  16 CALM      30.30F
BROOMFIELD     SUNNY     46  -2  13 CALM      30.30F
FORT COLLINS   FAIR      40  20  44 S5        30.28F
LONGMONT       FAIR      49  16  26 CALM      30.30F
$$

COZ041-046-047-076>085-087-088-172000-
...PIKES PEAK/PALMER DIVIDE AND SOUTHERN FOOTHILLS...

CITY           SKY/WX    TMP DP  RH WIND       PRES   REMARKS
COLO. SPRINGS  FAIR      55 -10   6 N12       30.28F
A. F. ACADEMY  FAIR      50 -15   6 N10       30.28F
SCHRIEVER AFB  FAIR      50  -8   9 NE15      30.28F
CHEYENNE MTN   FAIR      46 -10   9 N8        30.23F
ELLICOTT         N/A    N/A N/A N/A NE13G18   30.27S
FALCON         FAIR      48  -9   9 N9G16     30.30F
FORT CARSON    FAIR      54 -12   6 N5        30.26F
LIMON          FAIR      49  -3  11 N16       30.28F
MONUMENT HILL  FAIR      43  -4  14 N9        30.32F
CANON CITY     FAIR      54   1  12 CALM      30.26F
WALSENBURG     FAIR      52   5  15 N8        30.27S
TRINIDAD       FAIR      52   5  15 NW5       30.25F
$$

COZ042>045-048>051-090-091-172000-
...NORTHEAST COLORADO...

CITY           SKY/WX    TMP DP  RH WIND       PRES   REMARKS
GREELEY ARPT   FAIR      37  16  42 SW7       30.29F
AKRON          FAIR      35  15  44 W14       30.28F WCI  26
BURLINGTON     FAIR      45  11  25 N8        30.28F
WRAY           FAIR      46   1  15 NW6       30.28F
YUMA           FAIR      43   7  22 W10       30.27F
STERLING       FAIR      37  16  41 S6        30.27F
HOLYOKE        FAIR      45  14  29 NW12G18   30.28F
FORT MORGAN    FAIR      41  11  29 SW9       30.29F
$$

COZ086-089-092>099-172000-
...SOUTHEAST COLORADO...

CITY           SKY/WX    TMP DP  RH WIND       PRES   REMARKS
PUEBLO         FAIR      41  17  38 SE5       30.27F
LA JUNTA       FAIR      39  15  37 W5        30.28F
LAMAR          FAIR      38  12  34 W8        30.28F
SPRINGFIELD      N/A     45  13  27 CALM      30.25F
$$




USA.gov is the U.S. government's official web portal to all federal, state and local government web resources and services.